Quincy, IL

11:37 AM CDT on August 18, 2017 (GMT -0500)
Quincy Regional-Baldwin

Weather History for KUIN - September, 2012

Change the Weather History Date:

Sunday, September 16, 2012

  Actual Average Record
Temperature  
Mean Temperature 63 °F 66 °F  
Max Temperature 77 °F 77 °F 99 °F (1927)
Min Temperature 48 °F 56 °F 41 °F (1984)
Degree Days  
Heating Degree Days 2 2  
Month to date heating degree days 19 20  
Since 1 July heating degree days 19 25  
Cooling Degree Days 0 4  
Month to date cooling degree days 102 88  
Year to date cooling degree days 1549 1041  
Growing Degree Days 13 (Base 50)    
Moisture  
Dew Point 54 °F    
Average Humidity 72    
Maximum Humidity 89    
Minimum Humidity 54    
Precipitation  
Precipitation 0.00 in 0.10 in 2.95 in (1978)
Month to date precipitation 1.34 1.75  
Year to date precipitation 16.97 27.50  
Sea Level Pressure  
Sea Level Pressure 30.05 in    
Wind  
Wind Speed 4 mph (SSE)    
Max Wind Speed 12 mph    
Max Gust Speed 16 mph    
Visibility 10 miles    
Events      
T = Trace of Precipitation, MM = Missing Value Source: NWS Daily Summary

Daily Weather History Graph

Daily Weather History Graph

Search for Another Location

Airport or City:

Trip Planner

Search our weather history database for the weather conditions in past years. The results will help you decide how hot, cold, wet, or windy it might be!

Date:

Astronomy

Sep. 16, 2012 Rise Set
Actual Time 6:47 AM CDT 7:10 PM CDT
Civil Twilight 6:20 AM CDT 7:38 PM CDT
Nautical Twilight 5:48 AM CDT 8:09 PM CDT
Astronomical Twilight 5:15 AM CDT 8:42 PM CDT
Moon 7:26 AM CDT (9/16) 7:16 PM CDT (9/16)
Length of Visible Light 13h 17m
Length of Day
12h 23m
New Moon, 0% of the Moon is Illuminated
Sep 16
New Moon
Sep 22
First Quarter
Sep 29
Full
Oct 8
Last Quarter
Oct 15
New

Hourly Weather History & Observations

Time (CDT) Temp. Dew Point Humidity Pressure Visibility Wind Dir Wind Speed Gust Speed Precip Events Conditions
12:54 AM 53.1 °F 46.0 °F 77% 30.14 in 10.0 mi Calm Calm - N/A   Clear
1:54 AM 54.0 °F 46.0 °F 75% 30.12 in 10.0 mi Calm Calm - N/A   Clear
2:54 AM 52.0 °F 46.0 °F 80% 30.11 in 10.0 mi Calm Calm - N/A   Clear
3:54 AM 52.0 °F 48.0 °F 86% 30.10 in 9.0 mi Calm Calm - N/A   Clear
4:54 AM 51.1 °F 46.9 °F 86% 30.10 in 10.0 mi Calm Calm - N/A   Clear
5:54 AM 53.1 °F 46.9 °F 80% 30.10 in 10.0 mi ESE 4.6 mph - N/A   Clear
6:54 AM 52.0 °F 46.9 °F 83% 30.11 in 10.0 mi ESE 3.5 mph - N/A   Clear
7:54 AM 53.1 °F 48.0 °F 83% 30.12 in 10.0 mi Calm Calm - N/A   Partly Cloudy
8:54 AM 60.1 °F 51.1 °F 72% 30.11 in 10.0 mi ESE 6.9 mph - N/A   Clear
9:54 AM 64.9 °F 52.0 °F 63% 30.11 in 10.0 mi Calm Calm - N/A   Clear
10:54 AM 69.1 °F 55.9 °F 63% 30.09 in 10.0 mi Variable 4.6 mph - N/A   Clear
11:54 AM 72.0 °F 57.0 °F 59% 30.07 in 10.0 mi SSW 5.8 mph - N/A   Partly Cloudy
12:54 PM 73.0 °F 57.9 °F 59% 30.06 in 10.0 mi Variable 5.8 mph - N/A   Mostly Cloudy
1:54 PM 73.9 °F 57.9 °F 57% 30.03 in 10.0 mi South 5.8 mph - N/A   Mostly Cloudy
2:54 PM 75.9 °F 57.9 °F 54% 30.01 in 10.0 mi SW 8.1 mph - N/A   Mostly Cloudy
3:54 PM 75.0 °F 59.0 °F 57% 30.00 in 10.0 mi South 6.9 mph - N/A   Mostly Cloudy
4:54 PM 75.0 °F 59.0 °F 57% 29.99 in 10.0 mi SSE 5.8 mph - N/A   Partly Cloudy
5:54 PM 73.9 °F 59.0 °F 59% 29.98 in 10.0 mi South 6.9 mph - N/A   Clear
6:54 PM 71.1 °F 57.9 °F 63% 29.98 in 10.0 mi SSE 3.5 mph - N/A   Clear
7:54 PM 66.9 °F 59.0 °F 76% 29.98 in 10.0 mi SSE 4.6 mph - N/A   Clear
8:54 PM 66.0 °F 59.0 °F 78% 29.98 in 10.0 mi SSE 5.8 mph - N/A   Clear
9:54 PM 64.9 °F 59.0 °F 81% 29.98 in 9.0 mi South 5.8 mph - N/A   Clear
10:54 PM 63.0 °F 57.9 °F 84% 29.98 in 7.0 mi SSE 4.6 mph - N/A   Clear
11:54 PM 62.1 °F 57.9 °F 86% 29.97 in 8.0 mi South 4.6 mph - N/A   Clear